Year,Month,Day,Hour,Minute,Value (Times are PST for temperature in C)
2022,10,06,00,00,14.70
2022,10,06,00,01,14.70
2022,10,06,00,02,14.70
2022,10,06,00,03,14.70
2022,10,06,00,04,14.70
2022,10,06,00,05,14.70
2022,10,06,00,06,14.70
2022,10,06,00,07,14.70
2022,10,06,00,08,14.70
2022,10,06,00,09,14.70
2022,10,06,00,10,14.70
2022,10,06,00,11,14.80
2022,10,06,00,12,14.80
2022,10,06,00,13,14.90
2022,10,06,00,14,14.90
2022,10,06,00,15,14.90
2022,10,06,00,16,14.80
2022,10,06,00,17,14.80
2022,10,06,00,18,14.80
2022,10,06,00,19,14.80
2022,10,06,00,20,14.80
2022,10,06,00,21,14.80
2022,10,06,00,22,14.70
2022,10,06,00,23,14.70
2022,10,06,00,24,14.70
2022,10,06,00,25,14.70
2022,10,06,00,26,14.70
2022,10,06,00,27,14.60
2022,10,06,00,28,14.60
2022,10,06,00,29,14.70
2022,10,06,00,30,14.70
2022,10,06,00,31,14.70
2022,10,06,00,32,14.70
2022,10,06,00,33,14.60
2022,10,06,00,34,14.60
2022,10,06,00,35,14.60
2022,10,06,00,36,14.50
2022,10,06,00,37,14.60
2022,10,06,00,38,14.60
2022,10,06,00,39,14.60
2022,10,06,00,40,14.70
2022,10,06,00,41,14.70
2022,10,06,00,42,14.80
2022,10,06,00,43,14.80
2022,10,06,00,44,14.80
2022,10,06,00,45,14.80
2022,10,06,00,46,14.90
2022,10,06,00,47,14.90
2022,10,06,00,48,14.90
2022,10,06,00,49,14.90
2022,10,06,00,50,15.00
2022,10,06,00,51,15.00
2022,10,06,00,52,14.90
2022,10,06,00,53,14.90
2022,10,06,00,54,14.90
2022,10,06,00,55,14.90
2022,10,06,00,56,14.90
2022,10,06,00,57,14.90
2022,10,06,00,58,14.90
2022,10,06,00,59,14.90
2022,10,06,01,00,14.90
2022,10,06,01,01,14.90
2022,10,06,01,02,14.90
2022,10,06,01,03,14.90
2022,10,06,01,04,14.90
2022,10,06,01,05,14.90
2022,10,06,01,06,14.90
2022,10,06,01,07,14.90
2022,10,06,01,08,14.90
2022,10,06,01,09,14.90
2022,10,06,01,10,15.00
2022,10,06,01,11,15.00
2022,10,06,01,12,15.10
2022,10,06,01,13,15.10
2022,10,06,01,14,15.10
2022,10,06,01,15,15.10
2022,10,06,01,16,15.10
2022,10,06,01,17,15.10
2022,10,06,01,18,15.00
2022,10,06,01,19,15.00
2022,10,06,01,20,15.00
2022,10,06,01,21,14.90
2022,10,06,01,22,14.90
2022,10,06,01,23,14.90
2022,10,06,01,24,14.90
2022,10,06,01,25,14.90
2022,10,06,01,26,14.90
2022,10,06,01,27,14.90
2022,10,06,01,28,14.90
2022,10,06,01,29,14.90
2022,10,06,01,30,14.90
2022,10,06,01,31,14.90
2022,10,06,01,32,14.90
2022,10,06,01,33,14.90
2022,10,06,01,34,14.90
2022,10,06,01,35,14.90
2022,10,06,01,36,15.00
2022,10,06,01,37,14.90
2022,10,06,01,38,15.00
2022,10,06,01,39,15.00
2022,10,06,01,40,15.00
2022,10,06,01,41,14.90
2022,10,06,01,42,14.90
2022,10,06,01,43,14.90
2022,10,06,01,44,14.90
2022,10,06,01,45,14.90
2022,10,06,01,46,14.80
2022,10,06,01,47,14.90
2022,10,06,01,48,14.90
2022,10,06,01,49,14.90
2022,10,06,01,50,14.90
2022,10,06,01,51,14.90
2022,10,06,01,52,14.90
2022,10,06,01,53,14.90
2022,10,06,01,54,14.90
2022,10,06,01,55,14.90
2022,10,06,01,56,14.80
2022,10,06,01,57,14.80
2022,10,06,01,58,14.80
2022,10,06,01,59,14.80
2022,10,06,02,00,14.80
2022,10,06,02,01,14.80
2022,10,06,02,02,14.80
2022,10,06,02,03,14.80
2022,10,06,02,04,14.80
2022,10,06,02,05,14.80
2022,10,06,02,06,14.80
2022,10,06,02,07,14.90
2022,10,06,02,08,14.90
2022,10,06,02,09,14.80
2022,10,06,02,10,14.80
2022,10,06,02,11,14.80
2022,10,06,02,12,14.80
2022,10,06,02,13,14.80
2022,10,06,02,14,14.80
2022,10,06,02,15,14.80
2022,10,06,02,16,14.80
2022,10,06,02,17,14.80
2022,10,06,02,18,14.80
2022,10,06,02,19,14.80
2022,10,06,02,20,14.70
2022,10,06,02,21,14.70
2022,10,06,02,22,14.70
2022,10,06,02,23,14.70
2022,10,06,02,24,14.70
2022,10,06,02,25,14.60
2022,10,06,02,26,14.60
2022,10,06,02,27,14.60
2022,10,06,02,28,14.60
2022,10,06,02,29,14.60
2022,10,06,02,30,14.60
2022,10,06,02,31,14.60
2022,10,06,02,32,14.50
2022,10,06,02,33,14.50
2022,10,06,02,34,14.50
2022,10,06,02,35,14.50
2022,10,06,02,36,14.40
2022,10,06,02,37,14.40
2022,10,06,02,38,14.40
2022,10,06,02,39,14.40
2022,10,06,02,40,14.40
2022,10,06,02,41,14.30
2022,10,06,02,42,14.30
2022,10,06,02,43,14.30
2022,10,06,02,44,14.30
2022,10,06,02,45,14.30
2022,10,06,02,46,14.30
2022,10,06,02,47,14.30
2022,10,06,02,48,14.30
2022,10,06,02,49,14.20
2022,10,06,02,50,14.20
2022,10,06,02,51,14.20
2022,10,06,02,52,14.20
2022,10,06,02,53,14.20
2022,10,06,02,54,14.20
2022,10,06,02,55,14.20
2022,10,06,02,56,14.20
2022,10,06,02,57,14.20
2022,10,06,02,58,14.10
2022,10,06,02,59,14.10
2022,10,06,03,00,14.10
2022,10,06,03,01,14.10
2022,10,06,03,02,14.10
2022,10,06,03,03,14.10
2022,10,06,03,04,14.00
2022,10,06,03,05,14.00
2022,10,06,03,06,14.00
2022,10,06,03,07,13.90
2022,10,06,03,08,13.90
2022,10,06,03,09,14.00
2022,10,06,03,10,14.00
2022,10,06,03,11,13.90
2022,10,06,03,12,13.90
2022,10,06,03,13,13.90
2022,10,06,03,14,13.90
2022,10,06,03,15,13.90
2022,10,06,03,16,13.90
2022,10,06,03,17,13.90
2022,10,06,03,18,13.90
2022,10,06,03,19,13.90
2022,10,06,03,20,13.90
2022,10,06,03,21,13.90
2022,10,06,03,22,14.00
2022,10,06,03,23,14.00
2022,10,06,03,24,13.90
2022,10,06,03,25,13.90
2022,10,06,03,26,14.00
2022,10,06,03,27,14.00
2022,10,06,03,28,14.10
2022,10,06,03,29,14.10
2022,10,06,03,30,14.10
2022,10,06,03,31,14.10
2022,10,06,03,32,14.10
2022,10,06,03,33,14.10
2022,10,06,03,34,14.10
2022,10,06,03,35,14.10
2022,10,06,03,36,14.10
2022,10,06,03,37,14.10
2022,10,06,03,38,14.20
2022,10,06,03,39,14.20
2022,10,06,03,40,14.10
2022,10,06,03,41,14.10
2022,10,06,03,42,14.10
2022,10,06,03,43,14.10
2022,10,06,03,44,14.10
2022,10,06,03,45,14.10
2022,10,06,03,46,14.10
2022,10,06,03,47,14.10
2022,10,06,03,48,14.10
2022,10,06,03,49,14.10
2022,10,06,03,50,14.00
2022,10,06,03,51,14.00
2022,10,06,03,52,14.00
2022,10,06,03,53,14.00
2022,10,06,03,54,14.00
2022,10,06,03,55,14.10
2022,10,06,03,56,14.10
2022,10,06,03,57,14.10
2022,10,06,03,58,14.10
2022,10,06,03,59,14.00
2022,10,06,04,00,14.00
2022,10,06,04,01,14.00
2022,10,06,04,02,13.90
2022,10,06,04,03,13.90
2022,10,06,04,04,13.90
2022,10,06,04,05,13.90
2022,10,06,04,06,13.90
2022,10,06,04,07,13.80
2022,10,06,04,08,13.80
2022,10,06,04,09,13.80
2022,10,06,04,10,13.80
2022,10,06,04,11,13.80
2022,10,06,04,12,13.80
2022,10,06,04,13,13.80
2022,10,06,04,14,13.80
2022,10,06,04,15,13.80
2022,10,06,04,16,13.80
2022,10,06,04,17,13.70
2022,10,06,04,18,13.70
2022,10,06,04,19,13.70
2022,10,06,04,20,13.70
2022,10,06,04,21,13.70
2022,10,06,04,22,13.70
2022,10,06,04,23,13.70
2022,10,06,04,24,13.70
2022,10,06,04,25,13.60
2022,10,06,04,26,13.60
2022,10,06,04,27,13.60
2022,10,06,04,28,13.60
2022,10,06,04,29,13.60
2022,10,06,04,30,13.60
2022,10,06,04,31,13.60
2022,10,06,04,32,13.60
2022,10,06,04,33,13.50
2022,10,06,04,34,13.50
2022,10,06,04,35,13.50
2022,10,06,04,36,13.50
2022,10,06,04,37,13.40
2022,10,06,04,38,13.40
2022,10,06,04,39,13.40
2022,10,06,04,40,13.40
2022,10,06,04,41,13.40
2022,10,06,04,42,13.40
2022,10,06,04,43,13.30
2022,10,06,04,44,13.30
2022,10,06,04,45,13.30
2022,10,06,04,46,13.30
2022,10,06,04,47,13.30
2022,10,06,04,48,13.20
2022,10,06,04,49,13.20
2022,10,06,04,50,13.20
2022,10,06,04,51,13.20
2022,10,06,04,52,13.20
2022,10,06,04,53,13.20
2022,10,06,04,54,13.20
2022,10,06,04,55,13.20
2022,10,06,04,56,13.20
2022,10,06,04,57,13.20
2022,10,06,04,58,13.20
2022,10,06,04,59,13.20
2022,10,06,05,00,13.20
2022,10,06,05,01,13.20
2022,10,06,05,02,13.20
2022,10,06,05,03,13.30
2022,10,06,05,04,13.30
2022,10,06,05,05,13.30
2022,10,06,05,06,13.30
2022,10,06,05,07,13.30
2022,10,06,05,08,13.30
2022,10,06,05,09,13.30
2022,10,06,05,10,13.30
2022,10,06,05,11,13.30
2022,10,06,05,12,13.30
2022,10,06,05,13,13.30
2022,10,06,05,14,13.20
2022,10,06,05,15,13.20
2022,10,06,05,16,13.20
2022,10,06,05,17,13.20
2022,10,06,05,18,13.20
2022,10,06,05,19,13.20
2022,10,06,05,20,13.20
2022,10,06,05,21,13.20
2022,10,06,05,22,13.10
2022,10,06,05,23,13.10
2022,10,06,05,24,13.10
2022,10,06,05,25,13.10
2022,10,06,05,26,13.10
2022,10,06,05,27,13.10
2022,10,06,05,28,13.10
2022,10,06,05,29,13.10
2022,10,06,05,30,13.10
2022,10,06,05,31,13.10
2022,10,06,05,32,13.10
2022,10,06,05,33,13.10
2022,10,06,05,34,13.10
2022,10,06,05,35,13.10
2022,10,06,05,36,13.10
2022,10,06,05,37,13.10
2022,10,06,05,38,13.10
2022,10,06,05,39,13.10
2022,10,06,05,40,13.10
2022,10,06,05,41,13.10
2022,10,06,05,42,13.10
2022,10,06,05,43,13.20
2022,10,06,05,44,13.20
2022,10,06,05,45,13.20
2022,10,06,05,46,13.20
2022,10,06,05,47,13.20
2022,10,06,05,48,13.20
2022,10,06,05,49,13.20
2022,10,06,05,50,13.20
2022,10,06,05,51,13.20
2022,10,06,05,52,13.20
2022,10,06,05,53,13.20
2022,10,06,05,54,13.20
2022,10,06,05,55,13.20
2022,10,06,05,56,13.20
2022,10,06,05,57,13.20
2022,10,06,05,58,13.20
2022,10,06,05,59,13.10
2022,10,06,06,00,13.10
2022,10,06,06,01,13.10
2022,10,06,06,02,13.10
2022,10,06,06,03,13.10
2022,10,06,06,04,13.00
2022,10,06,06,05,13.00
2022,10,06,06,06,13.00
2022,10,06,06,07,13.00
2022,10,06,06,08,12.90
2022,10,06,06,09,12.90
2022,10,06,06,10,12.90
2022,10,06,06,11,12.90
2022,10,06,06,12,12.90
2022,10,06,06,13,12.90
2022,10,06,06,14,12.90
2022,10,06,06,15,12.90
2022,10,06,06,16,13.00
2022,10,06,06,17,13.00
2022,10,06,06,18,13.00
2022,10,06,06,19,13.00
2022,10,06,06,20,13.00
2022,10,06,06,21,13.00
2022,10,06,06,22,13.00
2022,10,06,06,23,13.00
2022,10,06,06,24,12.90
2022,10,06,06,25,12.90
2022,10,06,06,26,12.90
2022,10,06,06,27,12.90
2022,10,06,06,28,13.00
2022,10,06,06,29,13.00
2022,10,06,06,30,13.00
2022,10,06,06,31,12.90
2022,10,06,06,32,12.90
2022,10,06,06,33,12.90
2022,10,06,06,34,12.90
2022,10,06,06,35,12.90
2022,10,06,06,36,12.90
2022,10,06,06,37,12.90
2022,10,06,06,38,12.90
2022,10,06,06,39,12.90
2022,10,06,06,40,12.90
2022,10,06,06,41,12.90
2022,10,06,06,42,12.90
2022,10,06,06,43,12.90
2022,10,06,06,44,12.80
2022,10,06,06,45,12.80
2022,10,06,06,46,12.80
2022,10,06,06,47,12.80
2022,10,06,06,48,12.80
2022,10,06,06,49,12.80
2022,10,06,06,50,12.80
2022,10,06,06,51,12.80
2022,10,06,06,52,12.80
2022,10,06,06,53,12.80
2022,10,06,06,54,12.80
2022,10,06,06,55,12.80
2022,10,06,06,56,12.80
2022,10,06,06,57,12.90
2022,10,06,06,58,12.90
2022,10,06,06,59,12.90
2022,10,06,07,00,12.90
2022,10,06,07,01,12.90
2022,10,06,07,02,12.90
2022,10,06,07,03,12.90
2022,10,06,07,04,12.90
2022,10,06,07,05,13.00
2022,10,06,07,06,13.00
2022,10,06,07,07,13.00
2022,10,06,07,08,13.00
2022,10,06,07,09,13.00
2022,10,06,07,10,13.00
2022,10,06,07,11,13.10
2022,10,06,07,12,13.10
2022,10,06,07,13,13.10
2022,10,06,07,14,13.10
2022,10,06,07,15,13.10
2022,10,06,07,16,13.10
2022,10,06,07,17,13.10
2022,10,06,07,18,13.10
2022,10,06,07,19,13.10
2022,10,06,07,20,13.00
2022,10,06,07,21,13.00
2022,10,06,07,22,13.00
2022,10,06,07,23,13.00
2022,10,06,07,24,12.90
2022,10,06,07,25,12.90
2022,10,06,07,26,12.90
2022,10,06,07,27,12.90
2022,10,06,07,28,12.90
2022,10,06,07,29,12.90
2022,10,06,07,30,12.90
2022,10,06,07,31,12.90
2022,10,06,07,32,12.90
2022,10,06,07,33,12.90
2022,10,06,07,34,12.90
2022,10,06,07,35,12.90
2022,10,06,07,36,12.90
2022,10,06,07,37,12.90
2022,10,06,07,38,12.90
2022,10,06,07,39,12.90
2022,10,06,07,40,12.90
2022,10,06,07,41,12.90
2022,10,06,07,42,12.90
2022,10,06,07,43,13.00
2022,10,06,07,44,13.00
2022,10,06,07,45,13.00
2022,10,06,07,46,12.90
2022,10,06,07,47,12.90
2022,10,06,07,48,12.90
2022,10,06,07,49,12.90
2022,10,06,07,50,12.90
2022,10,06,07,51,12.90
2022,10,06,07,52,12.90
2022,10,06,07,53,12.90
2022,10,06,07,54,13.00
2022,10,06,07,55,13.00
2022,10,06,07,56,13.00
2022,10,06,07,57,13.00
2022,10,06,07,58,13.10
2022,10,06,07,59,13.10
2022,10,06,08,00,13.10
2022,10,06,08,01,13.10
2022,10,06,08,02,13.10
2022,10,06,08,03,13.10
2022,10,06,08,04,13.10
2022,10,06,08,05,13.00
2022,10,06,08,06,13.00
2022,10,06,08,07,13.00
2022,10,06,08,08,13.00
2022,10,06,08,09,13.00
2022,10,06,08,10,12.90
2022,10,06,08,11,12.90
2022,10,06,08,12,12.90
2022,10,06,08,13,12.90
2022,10,06,08,14,12.90
2022,10,06,08,15,12.80
2022,10,06,08,16,12.80
2022,10,06,08,17,12.80
2022,10,06,08,18,12.90
2022,10,06,08,19,12.90
2022,10,06,08,20,12.90
2022,10,06,08,21,12.90
2022,10,06,08,22,12.90
2022,10,06,08,23,12.90
2022,10,06,08,24,12.90
2022,10,06,08,25,12.90
2022,10,06,08,26,12.90
2022,10,06,08,27,12.90
2022,10,06,08,28,13.00
2022,10,06,08,29,13.00
2022,10,06,08,30,13.10
2022,10,06,08,31,13.10
2022,10,06,08,32,13.10
2022,10,06,08,33,13.10
2022,10,06,08,34,13.10
2022,10,06,08,35,13.20
2022,10,06,08,36,13.20
2022,10,06,08,37,13.20
2022,10,06,08,38,13.20
2022,10,06,08,39,13.20
2022,10,06,08,40,13.20
2022,10,06,08,41,13.30
2022,10,06,08,42,13.30
2022,10,06,08,43,13.30
2022,10,06,08,44,13.30
2022,10,06,08,45,13.30
2022,10,06,08,46,13.30
2022,10,06,08,47,13.30
2022,10,06,08,48,13.30
2022,10,06,08,49,13.30
2022,10,06,08,50,13.30
2022,10,06,08,51,13.30
2022,10,06,08,52,13.30
2022,10,06,08,53,13.30
2022,10,06,08,54,13.30
2022,10,06,08,55,13.30
2022,10,06,08,56,13.30
2022,10,06,08,57,13.40
2022,10,06,08,58,13.40
2022,10,06,08,59,13.40
2022,10,06,09,00,13.40
2022,10,06,09,01,13.40
2022,10,06,09,02,13.40
2022,10,06,09,03,13.40
2022,10,06,09,04,13.40
2022,10,06,09,05,13.50
2022,10,06,09,06,13.50
2022,10,06,09,07,13.50
2022,10,06,09,08,13.50
2022,10,06,09,09,13.60
2022,10,06,09,10,13.60
2022,10,06,09,11,13.60
2022,10,06,09,12,13.60
2022,10,06,09,13,13.70
2022,10,06,09,14,13.70
2022,10,06,09,15,13.70
2022,10,06,09,16,13.70
2022,10,06,09,17,13.70
2022,10,06,09,18,13.80
2022,10,06,09,19,13.80
2022,10,06,09,20,13.80
2022,10,06,09,21,13.80
2022,10,06,09,22,13.90
2022,10,06,09,23,13.90
2022,10,06,09,24,13.90
2022,10,06,09,25,13.90
2022,10,06,09,26,13.90
2022,10,06,09,27,14.00
2022,10,06,09,28,14.00
2022,10,06,09,29,14.00
2022,10,06,09,30,14.10
2022,10,06,09,31,14.10
2022,10,06,09,32,14.10
2022,10,06,09,33,14.10
2022,10,06,09,34,14.20
2022,10,06,09,35,14.20
2022,10,06,09,36,14.20
2022,10,06,09,37,14.30
2022,10,06,09,38,14.30
2022,10,06,09,39,14.30
2022,10,06,09,40,14.30
2022,10,06,09,41,14.30
2022,10,06,09,42,14.40
2022,10,06,09,43,14.40
2022,10,06,09,44,14.40
2022,10,06,09,45,14.50
2022,10,06,09,46,14.50
2022,10,06,09,47,14.50
2022,10,06,09,48,14.60
2022,10,06,09,49,14.60
2022,10,06,09,50,14.60
2022,10,06,09,51,14.60
2022,10,06,09,52,14.60
2022,10,06,09,53,14.70
2022,10,06,09,54,14.70
2022,10,06,09,55,14.70
2022,10,06,09,56,14.80
2022,10,06,09,57,14.80
2022,10,06,09,58,14.80
2022,10,06,09,59,14.90
2022,10,06,10,00,14.90
2022,10,06,10,01,14.90
2022,10,06,10,02,14.90
2022,10,06,10,03,15.00
2022,10,06,10,04,15.00
2022,10,06,10,05,15.10
2022,10,06,10,06,15.10
2022,10,06,10,07,15.10
2022,10,06,10,08,15.10
2022,10,06,10,09,15.10
2022,10,06,10,10,15.10
2022,10,06,10,11,15.20
2022,10,06,10,12,15.20
2022,10,06,10,13,15.20
2022,10,06,10,14,15.30
2022,10,06,10,15,15.30
2022,10,06,10,16,15.40
2022,10,06,10,17,15.40
2022,10,06,10,18,15.40
2022,10,06,10,19,15.40
2022,10,06,10,20,15.50
2022,10,06,10,21,15.60
2022,10,06,10,22,15.60
2022,10,06,10,23,15.70
2022,10,06,10,24,15.70
2022,10,06,10,25,15.70
2022,10,06,10,26,15.80
2022,10,06,10,27,15.80
2022,10,06,10,28,15.80
2022,10,06,10,29,15.80
2022,10,06,10,30,15.80
2022,10,06,10,31,15.90
2022,10,06,10,32,15.90
2022,10,06,10,33,16.00
2022,10,06,10,34,16.10
2022,10,06,10,35,16.10
2022,10,06,10,36,16.10
2022,10,06,10,37,16.20
2022,10,06,10,38,16.20
2022,10,06,10,39,16.30
2022,10,06,10,40,16.30
2022,10,06,10,41,16.30
2022,10,06,10,42,16.40
2022,10,06,10,43,16.40
2022,10,06,10,44,16.50
2022,10,06,10,45,16.60
2022,10,06,10,46,16.60
2022,10,06,10,47,16.70
2022,10,06,10,48,16.70
2022,10,06,10,49,16.80
2022,10,06,10,50,16.80
2022,10,06,10,51,16.90
2022,10,06,10,52,16.90
2022,10,06,10,53,16.90
2022,10,06,10,54,16.90
2022,10,06,10,55,17.00
2022,10,06,10,56,17.10
2022,10,06,10,57,17.20
2022,10,06,10,58,17.20
2022,10,06,10,59,17.20
2022,10,06,11,00,17.30
2022,10,06,11,01,17.30
2022,10,06,11,02,17.40
2022,10,06,11,03,17.40
2022,10,06,11,04,17.40
2022,10,06,11,05,17.50
2022,10,06,11,06,17.50
2022,10,06,11,07,17.60
2022,10,06,11,08,17.60
2022,10,06,11,09,17.70
2022,10,06,11,10,17.70
2022,10,06,11,11,17.80
2022,10,06,11,12,17.80
2022,10,06,11,13,17.80
2022,10,06,11,14,17.80
2022,10,06,11,15,17.90
2022,10,06,11,16,17.90
2022,10,06,11,17,17.90
2022,10,06,11,18,17.90
2022,10,06,11,19,18.00
2022,10,06,11,20,18.00
2022,10,06,11,21,18.00
2022,10,06,11,22,18.10
2022,10,06,11,23,18.10
2022,10,06,11,24,18.10
2022,10,06,11,25,18.10
2022,10,06,11,26,18.10
2022,10,06,11,27,18.20
2022,10,06,11,28,18.20
2022,10,06,11,29,18.20
2022,10,06,11,30,18.30
2022,10,06,11,31,18.30
2022,10,06,11,32,18.40
2022,10,06,11,33,18.40
2022,10,06,11,34,18.40
2022,10,06,11,35,18.40
2022,10,06,11,36,18.40
2022,10,06,11,37,18.50
2022,10,06,11,38,18.50
2022,10,06,11,39,18.60
2022,10,06,11,40,18.60
2022,10,06,11,41,18.60
2022,10,06,11,42,18.70
2022,10,06,11,43,18.70
2022,10,06,11,44,18.70
2022,10,06,11,45,18.70
2022,10,06,11,46,18.70
2022,10,06,11,47,18.80
2022,10,06,11,48,18.80
2022,10,06,11,49,18.80
2022,10,06,11,50,18.90
2022,10,06,11,51,18.90
2022,10,06,11,52,19.00
2022,10,06,11,53,19.00
2022,10,06,11,54,19.10
2022,10,06,11,55,19.10
2022,10,06,11,56,19.10
2022,10,06,11,57,19.20
2022,10,06,11,58,19.20
2022,10,06,11,59,19.20
2022,10,06,12,00,19.30
2022,10,06,12,01,19.30
2022,10,06,12,02,19.30
2022,10,06,12,03,19.30
2022,10,06,12,04,19.40
2022,10,06,12,05,19.40
2022,10,06,12,06,19.50
2022,10,06,12,07,19.60
2022,10,06,12,08,19.70
2022,10,06,12,09,19.70
2022,10,06,12,10,19.80
2022,10,06,12,11,19.80
2022,10,06,12,12,19.90
2022,10,06,12,13,19.90
2022,10,06,12,14,19.90
2022,10,06,12,15,19.90
2022,10,06,12,16,19.90
2022,10,06,12,17,19.90
2022,10,06,12,18,20.00
2022,10,06,12,19,20.00
2022,10,06,12,20,20.10
2022,10,06,12,21,20.10
2022,10,06,12,22,20.10
2022,10,06,12,23,20.10
2022,10,06,12,24,20.20
2022,10,06,12,25,20.20
2022,10,06,12,26,20.20
2022,10,06,12,27,20.30
2022,10,06,12,28,20.30
2022,10,06,12,29,20.30
2022,10,06,12,30,20.30
2022,10,06,12,31,20.30
2022,10,06,12,32,20.40
2022,10,06,12,33,20.40
2022,10,06,12,34,20.40
2022,10,06,12,35,20.40
2022,10,06,12,36,20.40
2022,10,06,12,37,20.40
2022,10,06,12,38,20.40
2022,10,06,12,39,20.40
2022,10,06,12,40,20.40
2022,10,06,12,41,20.40
2022,10,06,12,42,20.30
2022,10,06,12,43,20.40
2022,10,06,12,44,20.40
2022,10,06,12,45,20.40
2022,10,06,12,46,20.50
2022,10,06,12,47,20.60
2022,10,06,12,48,20.60
2022,10,06,12,49,20.60
2022,10,06,12,50,20.70
2022,10,06,12,51,20.70
2022,10,06,12,52,20.80
2022,10,06,12,53,20.80
2022,10,06,12,54,20.90
2022,10,06,12,55,21.00
2022,10,06,12,56,21.00
2022,10,06,12,57,21.10
2022,10,06,12,58,21.20
2022,10,06,12,59,21.20
2022,10,06,13,00,21.30
2022,10,06,13,01,21.40
2022,10,06,13,02,21.40
2022,10,06,13,03,21.50
2022,10,06,13,04,21.50
2022,10,06,13,05,21.60
2022,10,06,13,06,21.60
2022,10,06,13,07,21.70
2022,10,06,13,08,21.70
2022,10,06,13,09,21.70
2022,10,06,13,10,21.70
2022,10,06,13,11,21.80
2022,10,06,13,12,21.80
2022,10,06,13,13,21.80
2022,10,06,13,14,21.90
2022,10,06,13,15,21.90
2022,10,06,13,16,21.90
2022,10,06,13,17,21.90
2022,10,06,13,18,21.90
2022,10,06,13,19,21.90
2022,10,06,13,20,21.90
2022,10,06,13,21,21.80
2022,10,06,13,22,21.90
2022,10,06,13,23,21.90
2022,10,06,13,24,21.90
2022,10,06,13,25,21.90
2022,10,06,13,26,21.90
2022,10,06,13,27,21.90
2022,10,06,13,28,21.90
2022,10,06,13,29,21.90
2022,10,06,13,30,21.90
2022,10,06,13,31,21.90
2022,10,06,13,32,21.90
2022,10,06,13,33,21.90
2022,10,06,13,34,21.90
2022,10,06,13,35,21.90
2022,10,06,13,36,21.90
2022,10,06,13,37,22.00
2022,10,06,13,38,22.10
2022,10,06,13,39,22.10
2022,10,06,13,40,22.10
2022,10,06,13,41,22.20
2022,10,06,13,42,22.20
2022,10,06,13,43,22.30
2022,10,06,13,44,22.40
2022,10,06,13,45,22.40
2022,10,06,13,46,22.40
2022,10,06,13,47,22.40
2022,10,06,13,48,22.40
2022,10,06,13,49,22.40
2022,10,06,13,50,22.50
2022,10,06,13,51,22.50
2022,10,06,13,52,22.60
2022,10,06,13,53,22.60
2022,10,06,13,54,22.60
2022,10,06,13,55,22.70
2022,10,06,13,56,22.80
2022,10,06,13,57,22.80
2022,10,06,13,58,22.90
2022,10,06,13,59,23.00
2022,10,06,14,00,23.10
2022,10,06,14,01,23.10
2022,10,06,14,02,23.20
2022,10,06,14,03,23.30
2022,10,06,14,04,23.40
2022,10,06,14,05,23.50
2022,10,06,14,06,23.60
2022,10,06,14,07,23.60
2022,10,06,14,08,23.60
2022,10,06,14,09,23.60
2022,10,06,14,10,23.50
2022,10,06,14,11,23.40
2022,10,06,14,12,23.40
2022,10,06,14,13,23.30
2022,10,06,14,14,23.30
2022,10,06,14,15,23.30
2022,10,06,14,16,23.30
2022,10,06,14,17,23.40
2022,10,06,14,18,23.40
2022,10,06,14,19,23.30
2022,10,06,14,20,23.30
2022,10,06,14,21,23.30
2022,10,06,14,22,23.30
2022,10,06,14,23,23.20
2022,10,06,14,24,23.20
2022,10,06,14,25,23.20
2022,10,06,14,26,23.20
2022,10,06,14,27,23.20
2022,10,06,14,28,23.20
2022,10,06,14,29,23.20
2022,10,06,14,30,23.20
2022,10,06,14,31,23.10
2022,10,06,14,32,23.10
2022,10,06,14,33,23.10
2022,10,06,14,34,23.20
2022,10,06,14,35,23.20
2022,10,06,14,36,23.20
2022,10,06,14,37,23.30
2022,10,06,14,38,23.30
2022,10,06,14,39,23.30
2022,10,06,14,40,23.40
2022,10,06,14,41,23.40
2022,10,06,14,42,23.50
2022,10,06,14,43,23.50
2022,10,06,14,44,23.60
2022,10,06,14,45,23.60
2022,10,06,14,46,23.70
2022,10,06,14,47,23.80
2022,10,06,14,48,23.80
2022,10,06,14,49,23.80
2022,10,06,14,50,23.80
2022,10,06,14,51,23.80
2022,10,06,14,52,23.80
2022,10,06,14,53,23.80
2022,10,06,14,54,23.80
2022,10,06,14,55,23.80
2022,10,06,14,56,23.90
2022,10,06,14,57,23.90
2022,10,06,14,58,23.90
2022,10,06,14,59,23.80
2022,10,06,15,00,23.80
2022,10,06,15,01,23.80
2022,10,06,15,02,23.70
2022,10,06,15,03,23.60
2022,10,06,15,04,23.50
2022,10,06,15,05,23.40
2022,10,06,15,06,23.40
2022,10,06,15,07,23.30
2022,10,06,15,08,23.30
2022,10,06,15,09,23.30
2022,10,06,15,10,23.30
2022,10,06,15,11,23.30
2022,10,06,15,12,23.20
2022,10,06,15,13,23.20
2022,10,06,15,14,23.10
2022,10,06,15,15,23.10
2022,10,06,15,16,23.10
2022,10,06,15,17,23.00
2022,10,06,15,18,23.00
2022,10,06,15,19,22.90
2022,10,06,15,20,22.90
2022,10,06,15,21,22.90
2022,10,06,15,22,22.80
2022,10,06,15,23,22.80
2022,10,06,15,24,22.70
2022,10,06,15,25,22.60
2022,10,06,15,26,22.60
2022,10,06,15,27,22.50
2022,10,06,15,28,22.50
2022,10,06,15,29,22.40
2022,10,06,15,30,22.40
2022,10,06,15,31,22.30
2022,10,06,15,32,22.30
2022,10,06,15,33,22.30
2022,10,06,15,34,22.30
2022,10,06,15,35,22.20
2022,10,06,15,36,22.20
2022,10,06,15,37,22.10
2022,10,06,15,38,22.10
2022,10,06,15,39,22.10
2022,10,06,15,40,22.10
2022,10,06,15,41,22.00
2022,10,06,15,42,22.00
2022,10,06,15,43,21.90
2022,10,06,15,44,21.90
2022,10,06,15,45,21.90
2022,10,06,15,46,21.80
2022,10,06,15,47,21.80
2022,10,06,15,48,21.80
2022,10,06,15,49,21.70
2022,10,06,15,50,21.70
2022,10,06,15,51,21.70
2022,10,06,15,52,21.70
2022,10,06,15,53,21.70
2022,10,06,15,54,21.70
2022,10,06,15,55,21.70
2022,10,06,15,56,21.70
2022,10,06,15,57,21.80
2022,10,06,15,58,21.80
2022,10,06,15,59,21.90
2022,10,06,16,00,21.90
2022,10,06,16,01,21.90
2022,10,06,16,02,22.00
2022,10,06,16,03,22.00
2022,10,06,16,04,22.00
2022,10,06,16,05,21.90
2022,10,06,16,06,21.90
2022,10,06,16,07,22.00
2022,10,06,16,08,22.00
2022,10,06,16,09,22.00
2022,10,06,16,10,22.00
2022,10,06,16,11,22.10
2022,10,06,16,12,22.00
2022,10,06,16,13,22.00
2022,10,06,16,14,22.00
2022,10,06,16,15,22.10
2022,10,06,16,16,22.10
2022,10,06,16,17,22.10
2022,10,06,16,18,22.10
2022,10,06,16,19,22.10
2022,10,06,16,20,22.10
2022,10,06,16,21,22.10
2022,10,06,16,22,22.10
2022,10,06,16,23,22.10
2022,10,06,16,24,22.20
2022,10,06,16,25,22.20
2022,10,06,16,26,22.20
2022,10,06,16,27,22.20
2022,10,06,16,28,22.20
2022,10,06,16,29,22.30
2022,10,06,16,30,22.30
2022,10,06,16,31,22.30
2022,10,06,16,32,22.30
2022,10,06,16,33,22.20
2022,10,06,16,34,22.20
2022,10,06,16,35,22.20
2022,10,06,16,36,22.20
2022,10,06,16,37,22.20
2022,10,06,16,38,22.20
2022,10,06,16,39,22.20
2022,10,06,16,40,22.10
2022,10,06,16,41,22.10
2022,10,06,16,42,22.10
2022,10,06,16,43,22.10
2022,10,06,16,44,22.00
2022,10,06,16,45,22.00
2022,10,06,16,46,21.90
2022,10,06,16,47,21.90
2022,10,06,16,48,21.80
2022,10,06,16,49,21.80
2022,10,06,16,50,21.80
2022,10,06,16,51,21.70
2022,10,06,16,52,21.70
2022,10,06,16,53,21.70
2022,10,06,16,54,21.70
2022,10,06,16,55,21.70
2022,10,06,16,56,21.70
2022,10,06,16,57,21.60
2022,10,06,16,58,21.60
2022,10,06,16,59,21.60
2022,10,06,17,00,21.60
2022,10,06,17,01,21.60
2022,10,06,17,02,21.50
2022,10,06,17,03,21.50
2022,10,06,17,04,21.40
2022,10,06,17,05,21.40
2022,10,06,17,06,21.40
2022,10,06,17,07,21.40
2022,10,06,17,08,21.40
2022,10,06,17,09,21.40
2022,10,06,17,10,21.40
2022,10,06,17,11,21.40
2022,10,06,17,12,21.40
2022,10,06,17,13,21.40
2022,10,06,17,14,21.40
2022,10,06,17,15,21.40
2022,10,06,17,16,21.40
2022,10,06,17,17,21.40
2022,10,06,17,18,21.40
2022,10,06,17,19,21.40